EW5191 Weather Reports


Display with metric or nautical units.
time (UTC)temp
F
wind
direction
speed
MPH
gust
MPH
rain 1hr
in
rain 24hr
in
rain mn
in
humidity
%
barometer
mb
20260508171547 61 235 2.0 6.0 0.00 0.20 0.01 58 1013.7
20260508170053 61 185 1.0 7.0 0.00 0.20 0.01 60 1013.9
20260508164547 60 130 3.0 5.0 0.00 0.20 0.01 62 1013.9
20260508163040 59 53 1.0 3.0 0.00 0.20 0.01 62 1014.1
20260508161539 59 102 1.0 3.0 0.00 0.20 0.01 64 1014.2
20260508160036 57 353 1.0 4.0 0.00 0.20 0.01 67 1014.4
20260508154549 56 218 0.0 3.0 0.00 0.20 0.01 71 1014.5
20260508153029 55 351 0.0 3.0 0.00 0.20 0.01 77 1014.7
20260508151525 53 25 0.0 3.0 0.00 0.20 0.01 79 1014.9
20260508150023 51 357 0.0 2.0 0.00 0.20 0.01 83 1015.1
20260508144518 50 315 1.0 3.0 0.00 0.20 0.01 86 1015.0
20260508143017 49 356 1.0 4.0 0.00 0.20 0.01 88 1015.1
20260508141523 47 287 0.0 2.0 0.00 0.20 0.01 91 1015.2
20260508140016 46 293 0.0 1.0 0.00 0.20 0.01 92 1015.3
20260508134515 44 261 0.0 1.0 0.00 0.20 0.01 93 1015.1
20260508133017 43 260 0.0 0.0 0.00 0.20 0.01 93 1015.1
20260508131514 42 260 0.0 2.0 0.00 0.20 0.01 92 1014.9
20260508130015 43 132 0.0 1.0 0.00 0.20 0.01 91 1014.9
20260508124515 43 132 0.0 1.0 0.00 0.20 0.01 92 1014.7
20260508123025 43 131 0.0 0.0 0.00 0.20 0.01 91 1014.7
20260508121515 42 146 2.0 3.0 0.00 0.20 0.01 92 1014.6
20260508120010 42 151 2.0 3.0 0.00 0.20 0.01 92 1014.6
20260508114508 42 137 0.0 0.0 0.00 0.20 0.01 92 1014.5
20260508113008 42 229 0.0 0.0 0.00 0.20 0.01 91 1014.5
20260508111504 42 229 0.0 0.0 0.00 0.20 0.01 90 1014.4
20260508110002 43 223 0.0 3.0 0.00 0.20 0.01 90 1014.4
20260508104502 44 144 2.0 5.0 0.00 0.20 0.01 90 1014.4
20260508103101 44 127 3.0 5.0 0.00 0.20 0.01 90 1014.4
20260508101558 44 151 3.0 4.0 0.00 0.20 0.01 89 1014.3
20260508100109 45 144 2.0 4.0 0.00 0.20 0.01 89 1014.3
20260508094605 45 142 3.0 4.0 0.00 0.20 0.01 88 1014.3
20260508093056 45 144 2.0 4.0 0.00 0.20 0.01 88 1014.3
20260508091603 45 151 2.0 3.0 0.00 0.20 0.01 88 1014.2
20260508090113 45 140 2.0 3.0 0.00 0.20 0.01 88 1014.3
20260508084552 45 158 2.0 4.0 0.00 0.20 0.01 88 1014.3
20260508083051 46 161 2.0 5.0 0.00 0.20 0.01 88 1014.4
20260508081603 46 142 2.0 5.0 0.00 0.20 0.01 88 1014.4
20260508080047 47 135 0.0 3.0 0.01 0.20 0.01 88 1014.5
20260508074548 47 137 2.0 4.0 0.01 0.20 0.01 88 1014.6
20260508073102 48 154 1.0 9.0 0.01 0.20 0.01 87 1014.5
20260508071544 48 190 4.0 7.0 0.01 0.20 0.01 87 1014.5
20260508070046 49 145 5.0 9.0 0.00 0.19 0.00 87 1014.7
20260508064539 49 238 4.0 8.0 0.01 0.19 0.00 87 1015.1
20260508063040 49 227 4.0 8.0 0.02 0.19 0.00 87 1014.9
20260508061542 49 253 3.0 9.0 0.07 0.19 0.00 88 1014.6
20260508060039 49 244 7.0 11.0 0.09 0.19 0.00 89 1014.5
20260508054537 49 221 2.0 6.0 0.11 0.18 0.18 88 1014.3
20260508053034 49 236 4.0 7.0 0.11 0.18 0.18 89 1014.7
20260508051530 50 266 6.0 10.0 0.06 0.13 0.13 90 1015.5
20260508050028 49 262 3.0 4.0 0.05 0.10 0.10 90 1015.2
20260508044528 49 292 1.0 3.0 0.02 0.07 0.07 89 1014.8
20260508043028 49 164 5.0 9.0 0.02 0.07 0.07 90 1014.0
20260508041527 49 209 3.0 5.0 0.02 0.07 0.07 89 1014.2
20260508040027 49 317 1.0 4.0 0.05 0.05 0.05 88 1014.4
20260508034539 49 336 3.0 5.0 0.05 0.05 0.05 88 1014.1
20260508033026 49 62 0.0 2.0 0.05 0.05 0.05 86 1013.6
20260508031531 49 48 5.0 11.0 0.05 0.05 0.05 85 1013.5
20260508030024 50 26 9.0 12.0 0.00 0.00 0.00 80 1014.0
20260508024547 51 25 11.0 20.0 0.00 0.00 0.00 77 1013.1
20260508023023 52 9 13.0 20.0 0.00 0.00 0.00 75 1012.8
20260508021522 57 34 18.0 23.0 0.00 0.00 0.00 63 1012.4
20260508020019 58 20 6.0 9.0 0.00 0.00 0.00 57 1011.6
20260508014523 58 3 7.0 13.0 0.00 0.00 0.00 56 1011.5
20260508013022 59 31 5.0 10.0 0.00 0.00 0.00 55 1011.1
20260508011521 60 334 2.0 7.0 0.00 0.00 0.00 58 1010.8
20260508010019 60 44 4.0 9.0 0.00 0.00 0.00 59 1010.6
20260508004535 60 43 7.0 11.0 0.00 0.00 0.00 60 1010.7
20260508003017 61 4 8.0 14.0 0.00 0.00 0.00 56 1010.6
20260508001529 60 12 10.0 16.0 0.00 0.00 0.00 56 1010.5
20260508000016 59 351 8.0 13.0 0.00 0.00 0.00 58 1010.3
20260507234515 59 346 9.0 15.0 0.00 0.00 0.00 58 1010.6
20260507233014 60 9 12.0 17.0 0.00 0.00 0.00 58 1010.3
20260507231514 61 5 15.0 21.0 0.00 0.00 0.00 57 1010.3
20260507230013 61 357 15.0 24.0 0.00 0.00 0.00 54 1010.6
20260507224514 62 30 17.0 23.0 0.00 0.00 0.00 54 1010.1
20260507223012 63 22 16.0 22.0 0.00 0.00 0.00 51 1010.0
20260507221512 61 11 14.0 22.0 0.00 0.00 0.00 57 1010.3
20260507220012 61 13 9.0 16.0 0.00 0.00 0.00 59 1010.5
20260507214507 62 4 13.0 21.0 0.00 0.00 0.00 54 1010.8
20260507213009 63 21 17.0 24.0 0.00 0.00 0.00 48 1010.3
20260507211507 62 347 10.0 21.0 0.00 0.00 0.00 47 1010.8
20260507210005 64 25 7.0 14.0 0.00 0.00 0.00 43 1010.6
20260507204505 66 26 8.0 17.0 0.00 0.00 0.00 40 1010.4
20260507203002 67 28 4.0 18.0 0.00 0.00 0.00 39 1010.4
20260507201600 67 19 5.0 12.0 0.00 0.00 0.00 38 1010.4
20260507194615 66 35 10.0 15.0 0.00 0.00 0.00 40 1010.6
20260507193057 64 29 6.0 10.0 0.00 0.00 0.00 42 1010.7
20260507191552 63 23 7.0 16.0 0.00 0.00 0.00 40 1010.9
20260507190056 65 37 8.0 13.0 0.00 0.00 0.00 39 1011.0
20260507184550 66 30 4.0 12.0 0.00 0.00 0.00 35 1011.1
20260507183048 65 47 4.0 11.0 0.00 0.00 0.00 36 1011.2
20260507181546 65 22 7.0 13.0 0.00 0.00 0.00 36 1011.4
20260507180045 64 326 2.0 10.0 0.00 0.00 0.00 36 1011.6
20260507174546 64 140 1.0 10.0 0.00 0.00 0.00 37 1011.7
20260507173110 65 337 2.0 7.0 0.00 0.00 0.00 36 1011.9